This demonstration page uses our WeatherBlox Daily Observations layout. Learn more.

Hourly Observations for February 28, 2019

Temp ( °F °C ) Dew Point ( °F °C ) Humidity (%) Winds ( mph kmh ) Pressure ( in mb ) Visibility ( mi km ) Precip ( " mm )
12:15 am 00:15 Clear 11 -11.8 2 -16.4 69 69 S 5 7 30.4 1029 10 16.0934 0 0
4:35 am 04:35 Partly Cloudy 10 -12.2 3 -16 74 74 S 6 9 30.34 1027 10 16.0934 0 0
4:55 am 04:55 Mostly Cloudy 10 -12.1 3 -16 73 73 S 5 7 30.33 1027 10 16.0934 0 0
5:15 am 05:15 Cloudy 10 -12 3 -16 72 72 SW 5 7 30.34 1028 10 16.0934 0 0
5:35 am 05:35 Cloudy 10 -12 3 -15.9 73 73 SW 5 7 30.34 1028 10 16.0934 0 0
5:55 am 05:55 Cloudy 11 -11.6 4 -15.7 72 72 Calm 30.33 1027 10 16.0934 0 0
6:15 am 06:15 Cloudy 11 -11.7 3 -16 71 71 SSW 5 7 30.34 1027 10 16.0934 0 0
6:35 am 06:35 Mostly Cloudy 10 -12.1 3 -16.2 72 72 S 7 11 30.33 1027 10 16.0934 0 0
6:55 am 06:55 Partly Cloudy 9 -13 2 -16.6 75 75 SSE 7 11 30.33 1027 10 16.0934 0 0
7:15 am 07:15 Sunny 8 -13.5 1 -17.1 75 75 S 5 7 30.35 1028 10 16.0934 0 0
7:35 am 07:35 Sunny 7 -13.8 1 -17.3 75 75 Calm 30.35 1028 10 16.0934 0 0
7:55 am 07:55 Sunny 8 -13.2 1 -17.1 73 73 SSE 6 9 30.36 1028 10 16.0934 0 0
8:15 am 08:15 Sunny 9 -13 1 -17 72 72 Calm 30.36 1028 10 16.0934 0 0
8:35 am 08:35 Sunny 10 -12.3 2 -16.6 71 71 SE 6 9 30.36 1028 10 16.0934 0 0
8:55 am 08:55 Sunny 10 -12 2 -16.5 69 69 SSE 5 7 30.35 1028 10 16.0934 0 0
9:35 am 09:35 Sunny 12 -11.1 3 -16 67 67 S 7 11 30.34 1028 10 16.0934 0 0
9:55 am 09:55 Sunny 13 -10.3 4 -15.3 67 67 S 7 11 30.33 1027 10 16.0934 0 0
10:15 am 10:15 Sunny 14 -10 4 -15.3 66 66 S 8 13 30.33 1027 10 16.0934 0 0
10:35 am 10:35 Sunny 15 -9.7 5 -14.8 67 67 S 6 9 30.31 1026 10 16.0934 0 0
10:55 am 10:55 Sunny 15 -9.2 6 -14.4 66 66 SSE 6 9 30.29 1026 10 16.0934 0 0
11:15 am 11:15 Sunny 17 -8.6 6 -14.2 64 64 S 5 7 30.29 1026 10 16.0934 0 0
11:35 am 11:35 Sunny 18 -8 7 -13.7 64 64 S 6 9 30.27 1025 10 16.0934 0 0
11:55 am 11:55 Sunny 18 -8 8 -13.6 64 64 SSW 6 9 30.26 1025 10 16.0934 0 0
12:15 pm 12:15 Sunny 19 -7.4 8 -13.3 63 63 SSW 6 9 30.25 1024 10 16.0934 0 0
12:35 pm 12:35 Sunny 21 -6.1 10 -12.4 61 61 SW 6 9 30.23 1024 10 16.0934 0 0
12:55 pm 12:55 Sunny 21 -6 10 -12 63 63 SW 5 7 30.23 1024 10 16.0934 0 0
1:15 pm 13:15 Sunny 22 -5.6 11 -11.5 64 64 SW 3 6 30.21 1023 10 16.0934 0 0
1:35 pm 13:35 Sunny 23 -5.1 12 -11.1 63 63 S 5 7 30.19 1022 10 16.0934 0 0
1:55 pm 13:55 Sunny 23 -4.8 13 -10.8 63 63 S 6 9 30.19 1022 10 16.0934 0 0
2:15 pm 14:15 Sunny 24 -4.6 13 -10.7 63 63 S 3 6 30.16 1021 10 16.0934 0 0
2:35 pm 14:35 Sunny 24 -4.5 13 -10.6 63 63 Calm 30.15 1021 10 16.0934 0 0
2:55 pm 14:55 Sunny 24 -4.4 13 -10.7 62 62 Calm 30.16 1021 10 16.0934 0 0
3:15 pm 15:15 Sunny 24 -4.2 13 -10.5 62 62 Calm 30.17 1022 10 16.0934 0 0
3:35 pm 15:35 Sunny 24 -4.2 14 -10.1 64 64 Calm 30.16 1021 10 16.0934 0 0
3:55 pm 15:55 Sunny 25 -4 14 -10.1 63 63 Calm 30.16 1021 10 16.0934 0 0
4:15 pm 16:15 Sunny 26 -3.5 15 -9.7 63 63 Calm 30.15 1021 10 16.0934 0 0
4:35 pm 16:35 Sunny 25 -4 14 -9.8 64 64 Calm 30.15 1021 10 16.0934 0 0
4:55 pm 16:55 Sunny 25 -3.9 15 -9.7 64 64 Calm 30.15 1021 10 16.0934 0 0
5:15 pm 17:15 Sunny 26 -3.5 15 -9.5 64 64 S 3 6 30.15 1021 10 16.0934 0 0
5:35 pm 17:35 Sunny 25 -4 15 -9.5 66 66 SE 3 6 30.15 1021 10 16.0934 0 0
5:55 pm 17:55 Sunny 24 -4.2 16 -9 70 70 ESE 3 6 30.14 1021 10 16.0934 0 0
6:15 pm 18:15 Sunny 24 -4.5 15 -9.2 70 70 SE 6 9 30.16 1021 10 16.0934 0 0
6:35 pm 18:35 Clear 24 -4.7 16 -9.1 72 72 S 6 9 30.17 1022 10 16.0934 0 0
6:55 pm 18:55 Clear 23 -4.8 16 -8.8 74 74 S 5 7 30.19 1022 10 16.0934 0 0
7:15 pm 19:15 Clear 23 -5 16 -9.1 73 73 S 7 11 30.19 1022 10 16.0934 0 0
7:35 pm 19:35 Clear 23 -5.1 15 -9.2 73 73 S 3 6 30.18 1022 10 16.0934 0 0
7:55 pm 19:55 Clear 22 -5.5 15 -9.2 75 75 SE 3 6 30.18 1022 10 16.0934 0 0
8:15 pm 20:15 Clear 22 -5.5 15 -9.5 74 74 S 5 7 30.18 1022 10 16.0934 0 0
8:35 pm 20:35 Clear 21 -6 15 -9.6 76 76 S 5 7 30.2 1023 10 16.0934 0 0
8:55 pm 20:55 Clear 20 -6.5 14 -10 76 76 S 3 6 30.2 1023 10 16.0934 0 0
9:15 pm 21:15 Clear 20 -6.5 14 -10 76 76 Calm 30.2 1023 10 16.0934 0 0
9:35 pm 21:35 Clear 19 -7.1 13 -10.4 78 78 S 3 6 30.2 1023 10 16.0934 0 0
9:55 pm 21:55 Clear 19 -7.4 13 -10.4 79 79 SSE 3 6 30.2 1023 10 16.0934 0 0
10:15 pm 22:15 Clear 19 -7.2 13 -10.5 78 78 SSE 6 9 30.2 1023 10 16.0934 0 0
10:35 pm 22:35 Clear 19 -7.5 13 -10.7 78 78 S 7 11 30.2 1023 10 16.0934 0 0
10:55 pm 22:55 Partly Cloudy 18 -7.7 12 -11 77 77 SSE 6 9 30.2 1023 10 16.0934 0 0
11:15 pm 23:15 Partly Cloudy 18 -7.7 12 -11.1 77 77 SSE 6 9 30.18 1022 10 16.0934 0 0
11:35 pm 23:35 Mostly Cloudy 18 -7.6 12 -11 77 77 SSE 6 9 30.16 1021 10 16.0934 0 0
11:55 pm 23:55 Partly Cloudy 18 -8 12 -11.2 78 78 SSE 5 7 30.16 1021 10 16.0934 0 0

Powered by AerisWeather